LIFTER1 ETNW-ETNW

Flight info

Callsign LIFTER1
Flight time 1h 59m
Altitude 2500
Route DCT NORTA DCT ORTAG DCT KOJEC DCT UPDAT DCT
Aircraft A400/H-SDE2E3FGHIJ4J5M1RWXYZ/LB1D1

Departure

Time 2026-04-18 18:28
Airport Wunstorf Air Base (ETNW)

Arrival

Time 2026-04-18 20:27
Airport Wunstorf Air Base (ETNW)
Time Latitude Longitude Altitude Speed Heading
2026-04-18 17:53 52.46023 9.42515 184 ft 0 kts 262°
2026-04-18 18:22 52.46019 9.42482 183 ft 7 kts 254°
2026-04-18 18:23 52.45969 9.42452 183 ft 11 kts 173°
2026-04-18 18:23 52.45914 9.42531 184 ft 13 kts 89°
2026-04-18 18:23 52.45931 9.42714 182 ft 19 kts 81°
2026-04-18 18:23 52.45952 9.42935 193 ft 20 kts 80°
2026-04-18 18:24 52.45973 9.43168 180 ft 21 kts 82°
2026-04-18 18:24 52.45996 9.43408 190 ft 20 kts 82°
2026-04-18 18:24 52.46015 9.43636 191 ft 20 kts 81°
2026-04-18 18:24 52.46037 9.43862 196 ft 19 kts 81°
2026-04-18 18:25 52.46054 9.44080 197 ft 19 kts 86°
2026-04-18 18:25 52.46043 9.44285 201 ft 18 kts 97°
2026-04-18 18:25 52.46028 9.44491 203 ft 16 kts 96°
2026-04-18 18:25 52.46016 9.44662 204 ft 12 kts 96°
2026-04-18 18:26 52.46014 9.44697 201 ft 0 kts 97°
2026-04-18 18:26 52.46013 9.44702 196 ft 2 kts 97°
2026-04-18 18:26 52.46008 9.44768 196 ft 11 kts 97°
2026-04-18 18:27 52.45946 9.44848 204 ft 12 kts 198°
2026-04-18 18:27 52.45915 9.44735 207 ft 11 kts 261°
2026-04-18 18:27 52.45872 9.44248 200 ft 95 kts 262°
2026-04-18 18:27 52.45728 9.42637 361 ft 171 kts 263°
2026-04-18 18:28 52.45523 9.40539 840 ft 202 kts 259°
2026-04-18 18:28 52.45054 9.38177 1132 ft 223 kts 252°
2026-04-18 18:28 52.44534 9.35871 1220 ft 205 kts 251°
2026-04-18 18:28 52.43840 9.33880 1207 ft 210 kts 224°
2026-04-18 18:29 52.42438 9.33064 1237 ft 225 kts 184°
2026-04-18 18:29 52.40925 9.32469 1163 ft 227 kts 206°
2026-04-18 18:29 52.39509 9.31331 1165 ft 226 kts 208°
2026-04-18 18:29 52.38095 9.30206 1163 ft 225 kts 207°
2026-04-18 18:30 52.36600 9.29466 1132 ft 226 kts 189°
2026-04-18 18:30 52.35077 9.29903 1119 ft 227 kts 151°
2026-04-18 18:30 52.33694 9.31210 1170 ft 231 kts 151°
2026-04-18 18:30 52.32307 9.32497 1365 ft 229 kts 151°
2026-04-18 18:31 52.30925 9.33815 1625 ft 230 kts 150°
2026-04-18 18:31 52.29516 9.35099 1877 ft 232 kts 156°
2026-04-18 18:31 52.27981 9.35940 2114 ft 234 kts 168°
2026-04-18 18:31 52.26408 9.36474 2203 ft 234 kts 172°
2026-04-18 18:32 52.24802 9.36910 2269 ft 235 kts 171°
2026-04-18 18:32 52.23239 9.37657 2321 ft 235 kts 156°
2026-04-18 18:32 52.21833 9.39171 2340 ft 250 kts 142°
2026-04-18 18:32 52.20456 9.40969 2335 ft 256 kts 141°
2026-04-18 18:33 52.19064 9.42783 2313 ft 257 kts 142°
2026-04-18 18:33 52.17665 9.44592 2273 ft 257 kts 142°
2026-04-18 18:33 52.16254 9.46400 2253 ft 257 kts 142°
2026-04-18 18:33 52.14843 9.48191 2233 ft 257 kts 142°
2026-04-18 18:34 52.13430 9.49968 2419 ft 257 kts 143°
2026-04-18 18:34 52.12007 9.51741 2618 ft 257 kts 143°
2026-04-18 18:34 52.10581 9.53500 2815 ft 258 kts 143°
2026-04-18 18:34 52.09204 9.55360 3000 ft 258 kts 131°
2026-04-18 18:35 52.08235 9.57763 3180 ft 260 kts 121°
2026-04-18 18:35 52.07259 9.60270 3275 ft 259 kts 122°
2026-04-18 18:35 52.06283 9.62698 3374 ft 260 kts 123°
2026-04-18 18:35 52.05275 9.65132 3453 ft 260 kts 124°
2026-04-18 18:36 52.04243 9.67543 3481 ft 260 kts 125°
2026-04-18 18:36 52.03127 9.69863 3523 ft 261 kts 135°
2026-04-18 18:36 52.01691 9.71650 3550 ft 261 kts 151°
2026-04-18 18:36 52.00114 9.73117 3520 ft 260 kts 151°
2026-04-18 18:37 51.98553 9.74593 3425 ft 259 kts 150°
2026-04-18 18:37 51.96996 9.76064 3337 ft 259 kts 150°
2026-04-18 18:37 51.95386 9.77359 3235 ft 258 kts 159°
2026-04-18 18:37 51.93665 9.78205 3149 ft 257 kts 168°
2026-04-18 18:38 51.91946 9.78866 3089 ft 258 kts 167°
2026-04-18 18:38 51.90207 9.79556 3014 ft 257 kts 167°
2026-04-18 18:38 51.88474 9.80271 2938 ft 257 kts 166°
2026-04-18 18:38 51.86744 9.81009 2863 ft 257 kts 167°
2026-04-18 18:39 51.84976 9.81402 2795 ft 257 kts 179°
2026-04-18 18:39 51.83189 9.81272 2788 ft 257 kts 185°
2026-04-18 18:39 51.81400 9.81246 2787 ft 257 kts 173°
2026-04-18 18:39 51.79738 9.82276 2842 ft 258 kts 145°
2026-04-18 18:40 51.78556 9.84434 2904 ft 257 kts 116°
2026-04-18 18:40 51.78092 9.87171 2996 ft 257 kts 98°
2026-04-18 18:40 51.77808 9.90019 3024 ft 257 kts 97°
2026-04-18 18:40 51.77594 9.92881 3038 ft 256 kts 89°
2026-04-18 18:41 51.77707 9.95744 3052 ft 256 kts 84°
2026-04-18 18:41 51.77818 9.98611 3070 ft 256 kts 85°
2026-04-18 18:41 51.77864 10.01483 3067 ft 256 kts 88°
2026-04-18 18:41 51.77550 10.04306 3042 ft 258 kts 111°
2026-04-18 18:42 51.76814 10.06965 3057 ft 259 kts 112°
2026-04-18 18:42 51.76091 10.09628 3050 ft 259 kts 110°
2026-04-18 18:42 51.75722 10.12440 3042 ft 257 kts 92°
2026-04-18 18:42 51.75663 10.15285 3046 ft 256 kts 90°
2026-04-18 18:43 51.75515 10.21029 2879 ft 256 kts 93°
2026-04-18 18:43 51.75025 10.23772 2868 ft 258 kts 117°
2026-04-18 18:43 51.73878 10.25972 2922 ft 258 kts 139°
2026-04-18 18:44 51.72500 10.27817 2881 ft 256 kts 140°
2026-04-18 18:44 51.71113 10.29635 2807 ft 256 kts 140°
2026-04-18 18:44 51.69722 10.31426 2797 ft 256 kts 142°
2026-04-18 18:44 51.68306 10.33180 2810 ft 256 kts 141°
2026-04-18 18:45 51.66924 10.34999 2808 ft 256 kts 140°
2026-04-18 18:45 51.65560 10.36842 2794 ft 256 kts 139°
2026-04-18 18:45 51.64280 10.38827 2764 ft 255 kts 128°
2026-04-18 18:45 51.63248 10.41118 2758 ft 255 kts 124°
2026-04-18 18:46 51.62207 10.43431 2754 ft 255 kts 125°
2026-04-18 18:46 51.61158 10.45736 2752 ft 256 kts 125°
2026-04-18 18:46 51.60114 10.48056 2747 ft 256 kts 125°
2026-04-18 18:46 51.59078 10.50388 2707 ft 256 kts 124°
2026-04-18 18:47 51.58043 10.52725 2699 ft 256 kts 124°
2026-04-18 18:47 51.57009 10.55069 2697 ft 256 kts 124°
2026-04-18 18:47 51.56329 10.56620 2697 ft 256 kts 124°
2026-04-18 18:47 51.55305 10.58965 2691 ft 257 kts 124°
2026-04-18 18:48 51.53954 10.62085 2678 ft 256 kts 123°
2026-04-18 18:48 51.52940 10.64443 2688 ft 256 kts 123°
2026-04-18 18:48 51.51931 10.66804 2667 ft 256 kts 123°
2026-04-18 18:48 51.51265 10.68372 2657 ft 256 kts 123°
2026-04-18 18:49 51.50262 10.70742 2650 ft 256 kts 123°
2026-04-18 18:49 51.49265 10.73118 2651 ft 257 kts 123°
2026-04-18 18:49 51.48274 10.75494 2675 ft 256 kts 123°
2026-04-18 18:49 51.47281 10.77879 2702 ft 257 kts 123°
2026-04-18 18:50 51.46256 10.80215 2698 ft 257 kts 125°
2026-04-18 18:50 51.45184 10.82510 2684 ft 256 kts 127°
2026-04-18 18:50 51.44072 10.84746 2678 ft 256 kts 129°
2026-04-18 18:50 51.42917 10.86924 2675 ft 256 kts 130°
2026-04-18 18:51 51.41720 10.89035 2666 ft 256 kts 132°
2026-04-18 18:51 51.40440 10.91013 2638 ft 256 kts 147°
2026-04-18 18:51 51.38755 10.91357 2514 ft 249 kts 202°
2026-04-18 18:51 51.37515 10.89541 2516 ft 246 kts 246°
2026-04-18 18:52 51.37293 10.86901 2522 ft 241 kts 265°
2026-04-18 18:52 51.36479 10.84562 2357 ft 249 kts 220°
2026-04-18 18:52 51.34939 10.83364 2594 ft 244 kts 205°
2026-04-18 18:52 51.33385 10.82242 3138 ft 252 kts 206°
2026-04-18 18:53 51.32011 10.80546 3408 ft 255 kts 238°
2026-04-18 18:53 51.31582 10.77886 3467 ft 249 kts 274°
2026-04-18 18:53 51.31623 10.75100 3543 ft 251 kts 272°
2026-04-18 18:53 51.31667 10.72321 3480 ft 250 kts 273°
2026-04-18 18:54 51.31725 10.69546 3449 ft 249 kts 274°
2026-04-18 18:54 51.32067 10.66848 3468 ft 247 kts 293°
2026-04-18 18:54 51.32788 10.64340 3498 ft 247 kts 296°
2026-04-18 18:54 51.33494 10.61861 3523 ft 238 kts 296°
2026-04-18 18:55 51.34148 10.59502 3474 ft 228 kts 295°
2026-04-18 18:55 51.34775 10.57184 3427 ft 226 kts 294°
2026-04-18 18:55 51.35376 10.54906 3383 ft 225 kts 294°
2026-04-18 18:55 51.35970 10.52592 3321 ft 224 kts 294°
2026-04-18 18:56 51.36550 10.50274 3275 ft 224 kts 293°
2026-04-18 18:56 51.37115 10.47947 3220 ft 224 kts 292°
2026-04-18 18:56 51.37665 10.45611 3182 ft 224 kts 292°
2026-04-18 18:56 51.38202 10.43260 3135 ft 224 kts 291°
2026-04-18 18:57 51.38721 10.40913 3236 ft 224 kts 291°
2026-04-18 18:57 51.39223 10.38548 3340 ft 224 kts 290°
2026-04-18 18:57 51.39701 10.36201 3434 ft 225 kts 289°
2026-04-18 18:57 51.40169 10.33794 3414 ft 226 kts 289°
2026-04-18 18:58 51.40617 10.31384 3427 ft 226 kts 288°
2026-04-18 18:58 51.41044 10.28963 3479 ft 226 kts 287°
2026-04-18 18:58 51.41447 10.26534 3489 ft 226 kts 286°
2026-04-18 18:58 51.41828 10.24087 3532 ft 227 kts 285°
2026-04-18 18:59 51.42183 10.21627 3563 ft 226 kts 284°
2026-04-18 18:59 51.42514 10.19158 3600 ft 226 kts 285°
2026-04-18 18:59 51.43291 10.17082 3588 ft 220 kts 324°
2026-04-18 18:59 51.44538 10.15690 3579 ft 222 kts 326°
2026-04-18 19:00 51.45805 10.14254 3524 ft 222 kts 325°
2026-04-18 19:00 51.47070 10.12829 3457 ft 222 kts 326°
2026-04-18 19:00 51.48335 10.11388 3394 ft 222 kts 324°
2026-04-18 19:00 51.49577 10.09909 3330 ft 222 kts 323°
2026-04-18 19:01 51.50798 10.08388 3267 ft 222 kts 322°
2026-04-18 19:01 51.51980 10.06843 3261 ft 220 kts 321°
2026-04-18 19:01 51.53149 10.05237 3375 ft 222 kts 319°
2026-04-18 19:01 51.54302 10.03573 3457 ft 223 kts 318°
2026-04-18 19:02 51.55525 10.02042 3527 ft 223 kts 326°
2026-04-18 19:02 51.56784 10.00585 3489 ft 222 kts 323°
2026-04-18 19:02 51.57990 9.99023 3448 ft 222 kts 320°
2026-04-18 19:02 51.59169 9.97413 3393 ft 222 kts 325°
2026-04-18 19:03 51.60470 9.96057 3364 ft 223 kts 326°
2026-04-18 19:03 51.61725 9.94600 3358 ft 222 kts 325°
2026-04-18 19:03 51.62991 9.93168 3439 ft 222 kts 325°
2026-04-18 19:04 51.65551 9.90385 3591 ft 222 kts 326°
2026-04-18 19:04 51.66822 9.88973 3669 ft 222 kts 326°
2026-04-18 19:04 51.68274 9.88350 3618 ft 222 kts
2026-04-18 19:04 51.69580 9.89541 3578 ft 228 kts 51°
2026-04-18 19:05 51.69992 9.91973 3539 ft 233 kts 97°
2026-04-18 19:05 51.67893 9.95821 3397 ft 238 kts 143°
2026-04-18 19:05 51.66572 9.97443 3284 ft 239 kts 143°
2026-04-18 19:06 51.65233 9.99026 3171 ft 238 kts 144°
2026-04-18 19:06 51.62515 10.02083 2939 ft 238 kts 144°
2026-04-18 19:06 51.61177 10.03645 2827 ft 238 kts 143°
2026-04-18 19:07 51.59847 10.05227 2724 ft 238 kts 142°
2026-04-18 19:07 51.58518 10.06819 2596 ft 238 kts 143°
2026-04-18 19:07 51.57188 10.08391 2706 ft 235 kts 143°
2026-04-18 19:07 51.55857 10.09939 3006 ft 237 kts 144°
2026-04-18 19:08 51.54510 10.11478 3313 ft 238 kts 144°
2026-04-18 19:08 51.53160 10.12994 3396 ft 240 kts 144°
2026-04-18 19:08 51.51785 10.14509 3449 ft 240 kts 145°
2026-04-18 19:08 51.50402 10.16001 3537 ft 240 kts 146°
2026-04-18 19:09 51.49020 10.17502 3602 ft 239 kts 139°
2026-04-18 19:09 51.48197 10.19700 3640 ft 232 kts 96°
2026-04-18 19:09 51.48505 10.22156 3539 ft 226 kts 56°
2026-04-18 19:09 51.49395 10.24260 3504 ft 229 kts 53°
2026-04-18 19:10 51.50286 10.26370 3495 ft 228 kts 54°
2026-04-18 19:10 51.51160 10.28511 3479 ft 229 kts 55°
2026-04-18 19:10 51.52008 10.30674 3458 ft 229 kts 56°
2026-04-18 19:10 51.52830 10.32862 3438 ft 229 kts 57°
2026-04-18 19:11 51.53617 10.35045 3415 ft 229 kts 57°
2026-04-18 19:11 51.54427 10.37243 3403 ft 229 kts 56°
2026-04-18 19:11 51.55263 10.39418 3419 ft 229 kts 56°
2026-04-18 19:11 51.56107 10.41629 3448 ft 239 kts 56°
2026-04-18 19:12 51.57001 10.43997 3452 ft 254 kts 57°
2026-04-18 19:12 51.57920 10.46460 3436 ft 259 kts 57°
2026-04-18 19:12 51.58446 10.49199 3377 ft 263 kts 89°
2026-04-18 19:12 51.58299 10.52149 3359 ft 266 kts 94°
2026-04-18 19:13 51.58129 10.55124 3442 ft 266 kts 94°
2026-04-18 19:13 51.57963 10.58091 3508 ft 266 kts 94°
2026-04-18 19:13 51.57799 10.61066 3553 ft 266 kts 94°
2026-04-18 19:13 51.57637 10.64035 3573 ft 267 kts 94°
2026-04-18 19:14 51.57478 10.67002 3600 ft 266 kts 93°
2026-04-18 19:14 51.57321 10.69938 3623 ft 265 kts 93°
2026-04-18 19:14 51.57166 10.72893 3644 ft 265 kts 93°
2026-04-18 19:14 51.56999 10.75840 3656 ft 265 kts 97°
2026-04-18 19:15 51.56243 10.78520 3653 ft 268 kts 123°
2026-04-18 19:15 51.55180 10.80987 3699 ft 269 kts 123°
2026-04-18 19:15 51.54113 10.83453 3594 ft 268 kts 124°
2026-04-18 19:15 51.53025 10.85889 3563 ft 269 kts 125°
2026-04-18 19:16 51.51899 10.88292 3548 ft 269 kts 127°
2026-04-18 19:16 51.50743 10.90644 3527 ft 268 kts 128°
2026-04-18 19:16 51.49567 10.92977 3493 ft 269 kts 127°
2026-04-18 19:16 51.48444 10.95364 3470 ft 267 kts 124°
2026-04-18 19:17 51.47346 10.97774 3439 ft 267 kts 126°
2026-04-18 19:17 51.46248 11.00184 3430 ft 268 kts 124°
2026-04-18 19:17 51.45265 11.02720 3401 ft 266 kts 108°
2026-04-18 19:17 51.45271 11.05574 3362 ft 258 kts 66°
2026-04-18 19:18 51.46350 11.07830 3410 ft 258 kts 45°
2026-04-18 19:18 51.47565 11.09894 3423 ft 258 kts 45°
2026-04-18 19:18 51.48792 11.12005 3433 ft 259 kts 46°
2026-04-18 19:18 51.50015 11.14140 3443 ft 261 kts 46°
2026-04-18 19:19 51.51239 11.16310 3452 ft 262 kts 47°
2026-04-18 19:19 51.52452 11.18497 3470 ft 261 kts 47°
2026-04-18 19:19 51.53652 11.20693 3484 ft 261 kts 47°
2026-04-18 19:19 51.54874 11.22838 3493 ft 260 kts 45°
2026-04-18 19:20 51.56101 11.24989 3499 ft 261 kts 47°
2026-04-18 19:20 51.57298 11.27182 3524 ft 260 kts 48°
2026-04-18 19:20 51.58452 11.29368 3529 ft 253 kts 49°
2026-04-18 19:20 51.59549 11.31520 3519 ft 242 kts 50°
2026-04-18 19:21 51.60556 11.33568 3501 ft 233 kts 51°
2026-04-18 19:21 51.61549 11.35604 3499 ft 230 kts 46°
2026-04-18 19:21 51.62654 11.37461 3495 ft 229 kts 44°
2026-04-18 19:21 51.63772 11.39288 3444 ft 229 kts 44°
2026-04-18 19:22 51.64885 11.41121 3385 ft 229 kts 44°
2026-04-18 19:22 51.65991 11.42974 3370 ft 229 kts 45°
2026-04-18 19:22 51.67070 11.44858 3469 ft 229 kts 46°
2026-04-18 19:22 51.68156 11.46752 3481 ft 229 kts 45°
2026-04-18 19:23 51.69430 11.48172 3432 ft 223 kts 10°
2026-04-18 19:23 51.70905 11.47723 3408 ft 222 kts 324°
2026-04-18 19:23 51.71690 11.45689 3394 ft 224 kts 278°
2026-04-18 19:23 51.71333 11.43290 3370 ft 227 kts 235°
2026-04-18 19:24 51.70190 11.41495 3378 ft 232 kts 225°
2026-04-18 19:24 51.68999 11.39730 3428 ft 233 kts 223°
2026-04-18 19:24 51.67802 11.37964 3481 ft 233 kts 225°
2026-04-18 19:24 51.66606 11.36187 3538 ft 234 kts 223°
2026-04-18 19:25 51.65379 11.34466 3587 ft 234 kts 221°
2026-04-18 19:25 51.64115 11.32807 3618 ft 235 kts 219°
2026-04-18 19:25 51.62828 11.31208 3508 ft 237 kts 215°
2026-04-18 19:25 51.61227 11.30432 3444 ft 255 kts 179°
2026-04-18 19:26 51.59461 11.29970 3552 ft 262 kts 208°
2026-04-18 19:26 51.57961 11.28270 3556 ft 266 kts 219°
2026-04-18 19:26 51.56520 11.26413 3491 ft 265 kts 221°
2026-04-18 19:26 51.55097 11.24525 3425 ft 265 kts 220°
2026-04-18 19:27 51.53690 11.22608 3464 ft 265 kts 222°
2026-04-18 19:27 51.52308 11.20643 3586 ft 265 kts 223°
2026-04-18 19:27 51.50937 11.18656 3645 ft 266 kts 224°
2026-04-18 19:27 51.49600 11.16722 3537 ft 251 kts 223°
2026-04-18 19:28 51.48354 11.14910 3492 ft 235 kts 223°
2026-04-18 19:28 51.47161 11.13187 3542 ft 235 kts 223°
2026-04-18 19:28 51.45965 11.11417 3603 ft 233 kts 225°
2026-04-18 19:28 51.44802 11.09608 3653 ft 233 kts 226°
2026-04-18 19:29 51.43560 11.07952 3587 ft 231 kts 217°
2026-04-18 19:29 51.42288 11.06316 3549 ft 236 kts 220°
2026-04-18 19:29 51.41048 11.04593 3593 ft 235 kts 226°
2026-04-18 19:29 51.39823 11.02849 3590 ft 237 kts 222°
2026-04-18 19:30 51.38617 11.01077 3538 ft 237 kts 223°
2026-04-18 19:30 51.37411 10.99310 3498 ft 237 kts 231°
2026-04-18 19:30 51.36893 10.96946 3396 ft 224 kts 277°
2026-04-18 19:30 51.37525 10.94817 3375 ft 213 kts 314°
2026-04-18 19:31 51.38554 10.93096 3352 ft 214 kts 314°
2026-04-18 19:31 51.39555 10.91349 3485 ft 214 kts 310°
2026-04-18 19:31 51.40508 10.89495 3623 ft 220 kts 317°
2026-04-18 19:31 51.41591 10.87718 3677 ft 225 kts 314°
2026-04-18 19:32 51.42687 10.85923 3659 ft 225 kts 316°
2026-04-18 19:32 51.43773 10.84137 3769 ft 224 kts 314°
2026-04-18 19:32 51.44857 10.82340 3777 ft 224 kts 322°
2026-04-18 19:32 51.46017 10.80687 3938 ft 229 kts 312°
2026-04-18 19:33 51.47136 10.78780 3842 ft 235 kts 316°
2026-04-18 19:33 51.48248 10.76894 3628 ft 231 kts 313°
2026-04-18 19:33 51.49308 10.75001 3497 ft 226 kts 314°
2026-04-18 19:33 51.50355 10.73161 3453 ft 225 kts 312°
2026-04-18 19:34 51.51389 10.71277 3485 ft 224 kts 315°
2026-04-18 19:34 51.52421 10.69379 3533 ft 226 kts 310°
2026-04-18 19:34 51.53485 10.67529 3462 ft 223 kts 317°
2026-04-18 19:34 51.54884 10.66732 3442 ft 218 kts
2026-04-18 19:35 51.56189 10.67746 3465 ft 214 kts 47°
2026-04-18 19:35 51.56678 10.70014 3507 ft 227 kts 93°
2026-04-18 19:35 51.56297 10.72517 3480 ft 234 kts 103°
2026-04-18 19:35 51.55864 10.75042 3408 ft 234 kts 104°
2026-04-18 19:36 51.55546 10.76697 3425 ft 235 kts 106°
2026-04-18 19:36 51.55064 10.79200 3451 ft 233 kts 103°
2026-04-18 19:36 51.54614 10.81716 3491 ft 235 kts 106°
2026-04-18 19:36 51.53937 10.85022 3559 ft 235 kts 105°
2026-04-18 19:37 51.53620 10.86689 3603 ft 235 kts 105°
2026-04-18 19:37 51.53118 10.89181 3685 ft 236 kts 106°
2026-04-18 19:37 51.52703 10.91701 3505 ft 231 kts 87°
2026-04-18 19:37 51.53295 10.93951 3475 ft 222 kts 41°
2026-04-18 19:38 51.54657 10.95043 3507 ft 223 kts 15°
2026-04-18 19:38 51.56152 10.95733 3401 ft 223 kts 15°
2026-04-18 19:38 51.57645 10.96429 3324 ft 222 kts 15°
2026-04-18 19:38 51.59139 10.97108 3419 ft 224 kts 14°
2026-04-18 19:39 51.60647 10.97765 3506 ft 224 kts 13°
2026-04-18 19:39 51.62155 10.98382 3491 ft 223 kts 13°
2026-04-18 19:39 51.63636 10.99091 3649 ft 223 kts 18°
2026-04-18 19:39 51.65139 10.99780 3730 ft 225 kts 16°
2026-04-18 19:40 51.66627 11.00557 3782 ft 226 kts 16°
2026-04-18 19:40 51.68128 11.01298 3634 ft 224 kts 16°
2026-04-18 19:40 51.69628 11.02065 3589 ft 232 kts 17°
2026-04-18 19:40 51.71207 11.02867 3564 ft 248 kts 16°
2026-04-18 19:41 51.72890 11.03656 3656 ft 254 kts 14°
2026-04-18 19:41 51.74609 11.04297 3725 ft 251 kts 12°
2026-04-18 19:41 51.76288 11.04961 3663 ft 247 kts 14°
2026-04-18 19:41 51.77947 11.05694 3607 ft 247 kts 14°
2026-04-18 19:42 51.79601 11.06432 3551 ft 247 kts 14°
2026-04-18 19:42 51.81258 11.07176 3494 ft 247 kts 14°
2026-04-18 19:42 51.82923 11.07829 3413 ft 245 kts
2026-04-18 19:42 51.84559 11.07242 3275 ft 243 kts 343°
2026-04-18 19:43 51.86182 11.06487 3148 ft 242 kts 336°
2026-04-18 19:43 51.87309 11.04605 3201 ft 238 kts 290°
2026-04-18 19:43 51.87282 11.01934 3383 ft 247 kts 255°
2026-04-18 19:43 51.86806 10.99247 3463 ft 249 kts 256°
2026-04-18 19:44 51.86366 10.96534 3496 ft 250 kts 257°
2026-04-18 19:44 51.86188 10.93786 3412 ft 245 kts 283°
2026-04-18 19:44 51.87004 10.88414 3397 ft 245 kts 285°
2026-04-18 19:45 51.87444 10.85746 3368 ft 245 kts 287°
2026-04-18 19:45 51.87936 10.83139 3345 ft 245 kts 289°
2026-04-18 19:45 51.88463 10.80517 3325 ft 245 kts 289°
2026-04-18 19:45 51.89115 10.77986 3405 ft 243 kts 308°
2026-04-18 19:46 51.90372 10.76158 3490 ft 245 kts 320°
2026-04-18 19:46 51.91665 10.74354 3551 ft 245 kts 319°
2026-04-18 19:46 51.92940 10.72521 3553 ft 245 kts 318°
2026-04-18 19:46 51.94200 10.70663 3554 ft 245 kts 317°
2026-04-18 19:47 51.95465 10.68809 3557 ft 245 kts 318°
2026-04-18 19:47 51.96744 10.66958 3555 ft 245 kts 318°
2026-04-18 19:47 51.98021 10.65116 3550 ft 245 kts 318°
2026-04-18 19:47 51.99283 10.63299 3549 ft 246 kts 318°
2026-04-18 19:48 52.00562 10.61462 3542 ft 246 kts 318°
2026-04-18 19:48 52.01847 10.59622 3539 ft 245 kts 318°
2026-04-18 19:48 52.03127 10.57791 3532 ft 245 kts 319°
2026-04-18 19:48 52.04644 10.56627 3478 ft 245 kts 354°
2026-04-18 19:49 52.06274 10.57304 3462 ft 250 kts 33°
2026-04-18 19:49 52.07527 10.59299 3504 ft 254 kts 44°
2026-04-18 19:49 52.08770 10.61339 3554 ft 254 kts 43°
2026-04-18 19:49 52.10051 10.63322 3577 ft 254 kts 41°
2026-04-18 19:50 52.11368 10.65235 3607 ft 254 kts 39°
2026-04-18 19:50 52.12690 10.67084 3601 ft 254 kts 39°
2026-04-18 19:50 52.14029 10.68963 3561 ft 254 kts 39°
2026-04-18 19:50 52.15364 10.70842 3449 ft 254 kts 39°
2026-04-18 19:51 52.16700 10.72719 3310 ft 253 kts 39°
2026-04-18 19:51 52.18219 10.74034 3155 ft 248 kts 10°
2026-04-18 19:51 52.19926 10.74014 3019 ft 247 kts 354°
2026-04-18 19:51 52.21631 10.73762 2867 ft 246 kts 352°
2026-04-18 19:52 52.23331 10.73418 2758 ft 245 kts 351°
2026-04-18 19:52 52.24994 10.72856 2618 ft 243 kts 339°
2026-04-18 19:52 52.26356 10.71354 2485 ft 234 kts 309°
2026-04-18 19:52 52.26984 10.69044 2355 ft 223 kts 277°
2026-04-18 19:53 52.26738 10.66666 2181 ft 209 kts 251°
2026-04-18 19:53 52.26562 10.64394 2034 ft 203 kts 289°
2026-04-18 19:53 52.28828 10.62607 1480 ft 197 kts 359°
2026-04-18 19:54 52.30184 10.62494 1234 ft 193 kts 353°
2026-04-18 19:54 52.31454 10.62028 1207 ft 187 kts 325°
2026-04-18 19:54 52.32089 10.60281 1039 ft 186 kts 271°
2026-04-18 19:54 52.32060 10.58147 720 ft 189 kts 265°
2026-04-18 19:55 52.31919 10.56005 690 ft 190 kts 266°
2026-04-18 19:55 52.31794 10.53857 801 ft 192 kts 265°
2026-04-18 19:55 52.31865 10.51724 995 ft 189 kts 289°
2026-04-18 19:55 52.32256 10.49670 1172 ft 190 kts 287°
2026-04-18 19:56 52.32649 10.47619 1269 ft 189 kts 292°
2026-04-18 19:56 52.33069 10.45585 1305 ft 188 kts 288°
2026-04-18 19:56 52.33455 10.43530 1385 ft 188 kts 288°
2026-04-18 19:56 52.33771 10.41479 1452 ft 188 kts 281°
2026-04-18 19:57 52.34014 10.39330 1517 ft 200 kts 282°
2026-04-18 19:57 52.34233 10.36989 1634 ft 214 kts 276°
2026-04-18 19:57 52.34259 10.34524 1761 ft 219 kts 268°
2026-04-18 19:57 52.34076 10.32044 1878 ft 219 kts 265°
2026-04-18 19:58 52.34263 10.29615 1953 ft 216 kts 297°
2026-04-18 19:58 52.35014 10.27468 2009 ft 218 kts 298°
2026-04-18 19:58 52.35682 10.25272 2054 ft 218 kts 297°
2026-04-18 19:58 52.36357 10.23050 2069 ft 218 kts 296°
2026-04-18 19:59 52.37011 10.20810 2086 ft 218 kts 295°
2026-04-18 19:59 52.37459 10.18463 2064 ft 217 kts 270°
2026-04-18 19:59 52.37263 10.16008 2068 ft 220 kts 265°
2026-04-18 19:59 52.37133 10.13512 2094 ft 220 kts 266°
2026-04-18 20:00 52.36779 10.11107 2052 ft 221 kts 238°
2026-04-18 20:00 52.35836 10.09091 2060 ft 224 kts 234°
2026-04-18 20:00 52.34899 10.07053 2061 ft 224 kts 236°
2026-04-18 20:00 52.33996 10.04977 2071 ft 224 kts 237°
2026-04-18 20:01 52.33102 10.02888 2027 ft 224 kts 237°
2026-04-18 20:01 52.32194 10.00812 1972 ft 224 kts 236°
2026-04-18 20:01 52.31273 9.98747 1931 ft 225 kts 236°
2026-04-18 20:01 52.30340 9.96700 1897 ft 224 kts 235°
2026-04-18 20:02 52.29400 9.94684 1891 ft 225 kts 234°
2026-04-18 20:02 52.28441 9.92674 1878 ft 225 kts 234°
2026-04-18 20:02 52.27463 9.90675 1876 ft 225 kts 233°
2026-04-18 20:02 52.26478 9.88670 1850 ft 225 kts 233°
2026-04-18 20:03 52.25838 9.86420 1893 ft 219 kts 265°
2026-04-18 20:03 52.25656 9.83936 1941 ft 221 kts 265°
2026-04-18 20:03 52.25452 9.81441 1956 ft 221 kts 264°
2026-04-18 20:03 52.25236 9.78954 1974 ft 221 kts 264°
2026-04-18 20:04 52.25017 9.76463 1981 ft 222 kts 264°
2026-04-18 20:04 52.24795 9.73977 1997 ft 221 kts 263°
2026-04-18 20:04 52.24568 9.71491 2002 ft 222 kts 263°
2026-04-18 20:04 52.24598 9.69036 1970 ft 214 kts 293°
2026-04-18 20:05 52.25163 9.66757 1976 ft 217 kts 292°
2026-04-18 20:05 52.25728 9.64473 1954 ft 218 kts 294°
2026-04-18 20:05 52.26333 9.62244 1933 ft 218 kts 297°
2026-04-18 20:05 52.27273 9.60375 1876 ft 212 kts 327°
2026-04-18 20:06 52.28482 9.58943 1867 ft 216 kts 323°
2026-04-18 20:06 52.29667 9.57417 1861 ft 217 kts 321°
2026-04-18 20:06 52.30812 9.55811 1852 ft 217 kts 319°
2026-04-18 20:06 52.31749 9.53938 1800 ft 213 kts 291°
2026-04-18 20:07 52.32296 9.51657 1813 ft 216 kts 294°
2026-04-18 20:07 52.32858 9.49375 1873 ft 217 kts 285°
2026-04-18 20:07 52.32775 9.46928 1874 ft 217 kts 266°
2026-04-18 20:07 52.32621 9.44442 1937 ft 221 kts 266°
2026-04-18 20:08 52.32478 9.41934 1994 ft 221 kts 267°
2026-04-18 20:08 52.32353 9.39428 2059 ft 221 kts 268°
2026-04-18 20:08 52.32383 9.36933 2089 ft 218 kts 285°
2026-04-18 20:08 52.33064 9.34780 2089 ft 217 kts 304°
2026-04-18 20:09 52.33844 9.32673 1887 ft 212 kts 300°
2026-04-18 20:09 52.34615 9.30728 1654 ft 197 kts 322°
2026-04-18 20:09 52.35890 9.30138 1517 ft 195 kts
2026-04-18 20:09 52.37187 9.30790 1293 ft 199 kts 21°
2026-04-18 20:10 52.38499 9.31561 1166 ft 200 kts 16°
2026-04-18 20:10 52.39842 9.32187 1037 ft 200 kts 12°
2026-04-18 20:10 52.41195 9.32653 992 ft 198 kts 18°
2026-04-18 20:10 52.42132 9.34203 1020 ft 199 kts 69°
2026-04-18 20:11 52.42564 9.36376 1089 ft 203 kts 67°
2026-04-18 20:11 52.42809 9.38657 1163 ft 206 kts 83°
2026-04-18 20:11 52.42891 9.41011 1130 ft 206 kts 85°
2026-04-18 20:11 52.42958 9.43331 1113 ft 206 kts 80°
2026-04-18 20:12 52.43397 9.45510 1171 ft 201 kts 62°
2026-04-18 20:12 52.43970 9.47619 1265 ft 204 kts 72°
2026-04-18 20:12 52.44271 9.49891 1261 ft 204 kts 84°
2026-04-18 20:12 52.44546 9.51995 1185 ft 179 kts 46°
2026-04-18 20:13 52.45610 9.52566 1220 ft 166 kts 338°
2026-04-18 20:13 52.46302 9.51147 1171 ft 171 kts 282°
2026-04-18 20:13 52.46260 9.49184 850 ft 172 kts 264°
2026-04-18 20:13 52.46124 9.47293 624 ft 162 kts 264°
2026-04-18 20:14 52.45971 9.45505 401 ft 153 kts 262°
2026-04-18 20:14 52.45806 9.43784 370 ft 153 kts 263°
2026-04-18 20:14 52.45646 9.42055 409 ft 152 kts 263°
2026-04-18 20:14 52.45411 9.40360 604 ft 155 kts 254°
2026-04-18 20:15 52.45090 9.38671 865 ft 157 kts 256°
2026-04-18 20:15 52.44772 9.36948 961 ft 158 kts 255°
2026-04-18 20:15 52.44522 9.35117 1066 ft 176 kts 282°
2026-04-18 20:15 52.45219 9.33515 1084 ft 180 kts 334°
2026-04-18 20:16 52.46426 9.33540 1075 ft 184 kts 28°
2026-04-18 20:16 52.47096 9.35276 1039 ft 190 kts 78°
2026-04-18 20:16 52.47260 9.37479 1161 ft 196 kts 79°
2026-04-18 20:16 52.47448 9.39694 1309 ft 196 kts 79°
2026-04-18 20:17 52.47688 9.41890 1365 ft 195 kts 77°
2026-04-18 20:17 52.47907 9.44054 1284 ft 189 kts 76°
2026-04-18 20:17 52.48187 9.46163 1288 ft 183 kts 76°
2026-04-18 20:17 52.47893 9.48018 1226 ft 175 kts 141°
2026-04-18 20:18 52.46704 9.48317 813 ft 183 kts 206°
2026-04-18 20:18 52.46088 9.46790 597 ft 166 kts 267°
2026-04-18 20:18 52.45934 9.44946 303 ft 154 kts 263°
2026-04-18 20:18 52.45790 9.43345 192 ft 127 kts 263°
2026-04-18 20:19 52.45662 9.41773 323 ft 152 kts 264°
2026-04-18 20:19 52.45407 9.40072 700 ft 163 kts 255°
2026-04-18 20:19 52.45082 9.38184 1100 ft 176 kts 257°
2026-04-18 20:19 52.44761 9.36340 1163 ft 164 kts 257°
2026-04-18 20:20 52.44763 9.34590 1168 ft 154 kts 303°
2026-04-18 20:20 52.45654 9.33843 1142 ft 153 kts
2026-04-18 20:20 52.46490 9.34899 1063 ft 162 kts 54°
2026-04-18 20:20 52.47158 9.36559 1055 ft 186 kts 62°
2026-04-18 20:21 52.47384 9.38680 1163 ft 197 kts 88°
2026-04-18 20:21 52.47368 9.40934 1291 ft 201 kts 98°
2026-04-18 20:21 52.46486 9.42777 1357 ft 226 kts 155°
2026-04-18 20:21 52.44940 9.43356 1510 ft 226 kts 169°
2026-04-18 20:22 52.43579 9.44378 1642 ft 216 kts 126°
2026-04-18 20:22 52.43275 9.46556 1365 ft 196 kts 70°
2026-04-18 20:22 52.44092 9.48011 1293 ft 168 kts
2026-04-18 20:22 52.45173 9.47676 943 ft 158 kts 334°
2026-04-18 20:23 52.45990 9.46674 725 ft 141 kts 284°
2026-04-18 20:23 52.45958 9.45166 378 ft 132 kts 259°
2026-04-18 20:23 52.45825 9.43736 185 ft 114 kts 262°
2026-04-18 20:23 52.45683 9.42175 271 ft 163 kts 263°
2026-04-18 20:24 52.45577 9.40904 456 ft 172 kts 270°
2026-04-18 20:24 52.46184 9.38632 1007 ft 179 kts 329°
2026-04-18 20:24 52.47399 9.38460 1207 ft 184 kts 17°
2026-04-18 20:24 52.48265 9.39770 1305 ft 166 kts 69°
2026-04-18 20:25 52.48386 9.41017 1223 ft 170 kts 86°
2026-04-18 20:25 52.48397 9.43024 1160 ft 180 kts 86°
2026-04-18 20:25 52.48427 9.45089 1126 ft 177 kts 84°
2026-04-18 20:25 52.48324 9.47112 1093 ft 185 kts 114°
2026-04-18 20:26 52.47350 9.48298 1082 ft 174 kts 176°
2026-04-18 20:26 52.46393 9.47646 816 ft 133 kts 242°
2026-04-18 20:26 52.46046 9.46270 451 ft 128 kts 264°
2026-04-18 20:26 52.45921 9.44846 245 ft 125 kts 263°
2026-04-18 20:27 52.45818 9.43645 183 ft 64 kts 261°
2026-04-18 20:27 52.45772 9.43172 207 ft 19 kts 256°
2026-04-18 20:27 52.45802 9.43094 198 ft 7 kts 349°
2026-04-18 20:27 52.45871 9.43085 205 ft 10 kts 353°
2026-04-18 20:28 52.45943 9.43058 199 ft 11 kts 330°
2026-04-18 20:28 52.45952 9.42956 183 ft 14 kts 259°
2026-04-18 20:28 52.45939 9.42826 188 ft 12 kts 261°
2026-04-18 20:28 52.45928 9.42695 184 ft 12 kts 262°
2026-04-18 20:29 52.45960 9.42638 183 ft 10 kts 345°
2026-04-18 20:29 52.46023 9.42599 183 ft 9 kts 303°
2026-04-18 20:29 52.46023 9.42525 187 ft 0 kts 263°